Вернуться в каталог

CSC-2

АктивенСвязьSSO
NORAD 58021·PAYLOAD·🇳🇱 Netherlands

Запущен Oct 9, 2023 с Guiana Space Centre

Loading…

Ближайшие Пролёты (ближайшие 24 часа)

TLE

СвежийSource: Space-Track

Эпоха: Sep 14, 2026, 04:30 UTC

1 58021U 23155F   26257.18756678  .00006554  00000-0  28004-3 0  9999
2 58021  97.5358 334.1433 0003293 288.7352  71.3527 15.23203171161725

Отслеживайте CSC-2 в реальном времени с AllMySat

Download on the App Store